Starlink 30885

operational
NORAD ID: 58361 Int'l Des: 2023-177 Owner: SPXS Country: US Constellation: starlink
LEOCIRCULAR

关于 Starlink 30885

正在加载描述...

实时位置

正在加载3D地球...

即将过境

高度历史

Altitude vs Time

uPlot chart will show altitude changes over time

两行轨道根数

1 58361U 23177L 25302.79996102 .00001602 00000-0 13356-3 0 9998
2 58361 43.0052 343.0609 0001661 268.5236 91.5416 15.02552278108530
Epoch: Oct 29, 2025 • Age: 39 hours

当前状态

高度 562.0 km
速度 7.59 km/s
星下点 37.21°N, 89.93°W
发射日期 Nov 18, 2023
运行时间 1.9 years
类型 internet

技术详情

分类 Payload
质量 730.00 kg
干质量 700.00 kg
总质量 730.00 kg
长度 0.30 m
直径 4.10 m
跨度 29.00 m
形状 Box + pan
制造商 SPXS
平台类型 Starlink V2M
阶段状态 In Orbit
所有者/国家 SPXS/US

大型星座

Loading constellations...